Showing default

GEESAT 2-04, 58908

Orbit data source: Space-Track

GEESAT 2-04, 58908 is a payload satellite owned by GeeSpace (CN) in LEO that was launched on Fri, 02 Feb 2024 UTC via a CHANG ZHENG 2C launch vehicle from the Xichang Space Center, China (XSC). Payload-class satellites include a variety of spacecraft equipped with specific instruments for various scientific and technological missions. These include communications satellites like Starlink; space stations such as the ISS; scientific satellites like the Hubble; Earth observation satellites from companies like Planet Labs, Umbra, and HawkEye 360; GPS; miniature CubeSats for education and research; and military/defense satellites.

Loading next visibility...
Identifier
58908, 2024-023D
Orbit
LEO
Country
Flag of CNCN / PRC
Related business
Manufacturer
GWCG
Mission
Operational Commercial Navigation
Bus & Motor
GPS100, Unknown motor
Mass
130 kg wet, 130 kg dry
Launch date (UTC)
2024-02-02 (2 years ago)
Launch vehicle
CHANG ZHENG 2C
Launch site
Xichang Space Center, China (XSC)
Object type
Payload
Rocket body
Debris
Shape & HBR
Box + 2 Pan, 1.0 m
Radar Cross Section
0.833 m², Medium (>0.1 m² and < 1m²)

Expand to show TLE details & history
Last TLE update: 8 hours ago

TLE from 8 hours ago
0 GEESAT 2-04
1 58908U 24023D   25304.25835528  .00003888  00000-0  36734-3 0  9996
2 58908  49.9930 325.9073 0006512 224.4543 135.5878 14.95706120 95043
Epoch: 2025-10-31T06:12Z
TLE epoch observation values (Epoch: 2025-10-31T06:12:01.896Z)
Latitude
-0.00003°
Longitude
-166.90599°
Altitude
583.966 km
Speed
7.568 km/s
True Right ascension
21h 43m 37s
True Declination
0° 00' 00"
Sunlit
Object was in daylight at epoch
Visualization orbit readout
Latitude
Unknown
Longitude
Unknown
Altitude
Unknown
Speed
Unknown
Apparent Right ascension
Unknown
Apparent Declination
Unknown
Sunlit
N/A
Visualization observer readout
Local Sidereal Time
09:45:41
Azimuth
Unknown
Elevation
Unknown
Doppler factor
Unknown
Orbital elements
Apogee altitude
585.477 km
Perigee altitude
576.414 km
Semi-major axis
6,959.082 km
Eccentricity
0.00065
Inclination
49.993°
RAAN
325.9073°
Arg. of periapsis
224.4543°
True anomaly
135.63999°
Mean anomaly
135.5878°
Eccentric anomaly
135.6139°
Mean motion
3.73865 °/min
Orbital period
96.29 mins
BSTAR
0.00036734
Loading maneuver chart data...
Computing Atmospheric mass density...
Loading historical data...
Loading historical data...
Loading historical data...
Loading historical data...
Loading historical data...
Loading historical data...
Loading historical data...

Documentation

Showing up to 5 results
|